sat.trackr.live / text

‹ back to catalog

STARLINK-4142

NORAD 53255 · 2022-086P

PAYLOAD ACTIVE UNKNOWN

§ Identity

Operator
Country
US
Launch date
2022-07-24
Launch site
AFETR
Launch vehicle
Mass (kg)
RCS (m²)

Purposes: comms

External: N2YO · Heavens-Above · Gunter

§ Orbital elements

Epoch: 2026-05-24T14:27:22.680576Z

Period
95.44 min
Inclination
53.2147°
Eccentricity
0.0001186
Mean motion
15.08838432 rev/d
Perigee alt
538.9 km
Apogee alt
540.6 km
Semi-major
6,917.9 km
B*
1.2106e-5
RAAN
213.3362°
Arg perigee
87.1400°
Mean anomaly
272.9728°
Rev number
21,252

§ Raw data

STARLINK-41421 53255U 22086P   26144.60234584 -.00000095  00000+0  12106-4 0  99952 53255  53.2147 213.3362 0001186  87.1400 272.9728 15.08838432212521

JSON: /api/v1/satellites/53255 · /tle

For live sub-satellite position, see the globe view (requires WebGL).

§ Visibility from observer

Set your observer location to see the next 7 days of passes ≥ 10°. The values pass through the URL so the page stays shareable.

No JS? Fill the form by hand. The geolocation button needs JavaScript.